Weather History for Joplin, MO

Change the Weather History Date:

Thursday, September 12, 2013

  Actual Average Record
Temperature  
Mean Temperature 78 °F 72 °F  
Max Temperature 89 °F 84 °F 97 °F (1956)
Min Temperature 67 °F 61 °F 46 °F (1959)
Degree Days  
Heating Degree Days 0 1  
Month to date heating degree days 0 1  
Since 1 July heating degree days 0 2  
Cooling Degree Days 13 8  
Month to date cooling degree days 164 118  
Year to date cooling degree days 1428 1545  
Growing Degree Days 28 (Base 50)    
Moisture  
Dew Point 67 °F    
Average Humidity 72    
Maximum Humidity 90    
Minimum Humidity 53    
Precipitation  
Precipitation 0.00 in 0.18 in 1.12 in (2000)
Month to date precipitation T 1.94  
Year to date precipitation 35.46 32.91  
Snow  
Snow 0.00 in - - ()
Month to date snowfall 0.0  
Snow Depth 0.00 in    
Sea Level Pressure  
Sea Level Pressure 30.06 in    
Wind  
Wind Speed 5 mph (NNE)    
Max Wind Speed 15 mph    
Max Gust Speed 17 mph    
Visibility 10 miles    
Events      
T = Trace of Precipitation, MM = Missing Value Source: NWS Daily Summary

Daily Weather History Graph

Daily Weather History Graph

Search for Another Location

Airport:

Trip Planner

Search our weather history database for the weather conditions in past years. The results will help you decide how hot, cold, wet, or windy it might be!

Date:

Astronomy

Sep. 12, 2013 Rise Set
Actual Time 6:57 AM CDT 7:29 PM CDT
Civil Twilight 6:31 AM CDT 7:55 PM CDT
Nautical Twilight 6:00 AM CDT 8:26 PM CDT
Astronomical Twilight 5:29 AM CDT 8:58 PM CDT
Moon 2:17 PM CDT (9/12) No Moon Set
Length of Visible Light 13h 24m
Length of Day
12h 31m
Waxing Crescent, 50% of the Moon is Illuminated
Sep 12
Waxing Crescent
Sep 12
First Quarter
Sep 19
Full
Sep 26
Last Quarter
Oct 4
New

Hourly Weather History & Observations

Time (CDT) Temp. Heat Index Dew Point Humidity Pressure Visibility Wind Dir Wind Speed Gust Speed Precip Events Conditions
12:53 AM 72.0 °F - 66.0 °F 81% 30.06 in 9.0 mi SSE 8.1 mph - N/A   Clear
1:53 AM 75.0 °F - 66.0 °F 73% 30.05 in 10.0 mi South 8.1 mph - N/A   Clear
2:53 AM 73.0 °F - 66.0 °F 79% 30.04 in 10.0 mi South 5.8 mph - N/A   Clear
3:53 AM 73.0 °F - 66.0 °F 79% 30.04 in 10.0 mi Calm Calm - N/A   Clear
4:53 AM 71.1 °F - 64.9 °F 81% 30.05 in 9.0 mi Calm Calm - N/A   Clear
5:53 AM 69.1 °F - 66.0 °F 90% 30.05 in 8.0 mi Calm Calm - N/A   Clear
6:53 AM 69.1 °F - 66.0 °F 90% 30.08 in 7.0 mi NNE 3.5 mph - N/A   Clear
7:53 AM 72.0 °F - 66.9 °F 84% 30.09 in 6.0 mi Calm Calm - N/A   Haze
8:53 AM 73.9 °F - 66.9 °F 79% 30.09 in 10.0 mi ENE 3.5 mph - N/A   Clear
9:53 AM 79.0 °F - 68.0 °F 69% 30.10 in 10.0 mi NE 5.8 mph - N/A   Clear
10:53 AM 82.9 °F 85.4 °F 66.9 °F 58% 30.09 in 10.0 mi Calm Calm - N/A   Clear
11:53 AM 84.0 °F 87.8 °F 69.1 °F 61% 30.10 in 10.0 mi NNE 9.2 mph - N/A   Clear
12:53 PM 84.9 °F 88.8 °F 69.1 °F 59% 30.09 in 10.0 mi North 9.2 mph - N/A   Clear
1:53 PM 87.1 °F 90.6 °F 68.0 °F 53% 30.07 in 10.0 mi North 5.8 mph - N/A   Clear
2:53 PM 87.1 °F 90.6 °F 68.0 °F 53% 30.05 in 10.0 mi NNE 8.1 mph - N/A   Scattered Clouds
3:53 PM 87.1 °F 90.6 °F 68.0 °F 53% 30.04 in 10.0 mi North 8.1 mph - N/A   Mostly Cloudy
4:53 PM 84.0 °F 87.8 °F 69.1 °F 61% 30.03 in 10.0 mi North 10.4 mph - N/A   Clear
5:53 PM 80.1 °F 82.7 °F 68.0 °F 67% 30.03 in 10.0 mi NNE 8.1 mph - N/A   Clear
6:53 PM 78.1 °F - 66.9 °F 68% 30.04 in 10.0 mi North 6.9 mph - N/A   Clear
7:53 PM 75.0 °F - 66.9 °F 76% 30.05 in 10.0 mi North 3.5 mph - N/A   Clear
8:53 PM 75.0 °F - 66.0 °F 73% 30.05 in 10.0 mi NNE 5.8 mph - N/A   Clear
9:53 PM 73.0 °F - 64.9 °F 76% 30.06 in 10.0 mi NNE 4.6 mph - N/A   Clear
10:53 PM 71.1 °F - 64.9 °F 81% 30.06 in 10.0 mi NE 3.5 mph - N/A   Clear
11:53 PM 71.1 °F - 64.9 °F 81% 30.06 in 10.0 mi ENE 3.5 mph - N/A   Clear